Location: Étouvelles
(49.5207°N, 3.5808°E)
Time: 14:09:49
(UTC+00:00)

Cosmos 1606 Rocket - Pass Details

Date: 03 February 2023
Orbit: 602 x 630 km, 82.5° (Epoch: 22 March)

Event Time Altitude Azimuth Distance (km) Brightness Sun altitude
Rises 18:28:40 0° 345° (NNW) 2,868 7.1 -17.1°
Reaches altitude 10° 18:30:56 10° 340° (NNW) 1,960 6.3 -17.5°
Maximum altitude 18:35:06 49° 266° (W) 787 4.5 -18.1°
Drops below altitude 10° 18:39:15 10° 192° (SSW) 1,949 6.3 -18.8°
Sets 18:41:30 0° 187° (S) 2,851 7.1 -19.2°
